Terug naar catalogus

STARLINK-5667

ActiefCommunicatieVLEO
NORAD 55337·PAYLOAD·🇺🇸 United States

Gelanceerd Jan 26, 2023 vanaf Cape Canaveral Space Force Station

Loading…

Volgende Passages (komende 24 uur)

TLE

VersSource: CelesTrak SupGP

Epoch: Sep 15, 2026, 02:33 UTC

1 55337C 23013G   26258.10673611  .00016661  00000+0  60294-3 0  2581
2 55337  43.0009 299.4008 0001100 244.8145 226.0941 15.27599236    17

Volg STARLINK-5667 in realtime met AllMySat

Download on the App Store